Weather reports worldwide

Advertisment
Harlingen, tx, United States of America (2072802): temperature & dewpoint: 19.05.2019 01:00:00 - 25.05.2019 01:00:00 (CDT)Harlingen, tx, United States of America (2072802): wind speed & gusts: 19.05.2019 01:00:00 - 25.05.2019 01:00:00 (CDT)Harlingen, tx, United States of America (2072802): wind direction: 19.05.2019 01:00:00 - 25.05.2019 01:00:00 (CDT)Harlingen, tx, United States of America (2072802): reduced air pressure: 19.05.2019 01:00:00 - 25.05.2019 01:00:00 (CDT)Harlingen, tx, United States of America (2072802): visibility: 19.05.2019 01:00:00 - 25.05.2019 01:00:00 (CDT)
Date & Time tt [°C] td [°C] ff [km/h] ff [kn] fx [km/h] fx [kn] dd ppp [hPa] vv [km]
25.05.2019 01:00:00 27,8 24,4 24 13 - - SE 1013,5 16
25.05.2019 00:00:00 27,8 24,4 34 18 - - SE 1013,6 16
24.05.2019 23:00:00 27,8 25,0 28 15 - - SE 1013,3 16
24.05.2019 22:00:00 27,8 25,0 29 16 - - SE 1012,8 16
24.05.2019 21:00:00 27,8 24,4 22 12 - - SE 1012,5 16
24.05.2019 20:00:00 28,3 24,4 34 18 50 27 SE 1011,5 16
24.05.2019 19:00:00 30,0 24,4 39 21 48 26 SE 1011,3 16
24.05.2019 18:00:00 31,1 23,9 37 20 52 28 ESE 1011,5 16
24.05.2019 17:00:00 32,2 23,9 39 21 54 29 SE 1011,6 16
24.05.2019 16:00:00 33,3 23,3 39 21 57 31 ESE 1011,9 16
24.05.2019 15:00:00 33,9 22,8 34 18 50 27 SE 1012,5 16
24.05.2019 14:00:00 33,3 22,8 35 19 52 28 SE 1013,1 16
24.05.2019 13:00:00 33,3 21,7 37 20 54 29 SSE 1013,4 16
24.05.2019 12:00:00 33,3 21,7 37 20 50 27 SSE 1013,7 16
24.05.2019 11:00:00 32,2 22,2 35 19 55 30 SSE 1013,8 16
24.05.2019 10:00:00 31,1 22,8 35 19 57 31 SSE 1013,9 16
24.05.2019 09:00:00 29,4 23,3 31 17 - - SSE 1014,0 16
24.05.2019 08:00:00 26,7 23,9 26 14 - - SE 1013,3 16
24.05.2019 07:00:00 25,6 23,9 21 11 - - SE 1012,6 15
24.05.2019 06:00:00 25,6 23,9 22 12 - - SE 1012,2 16
24.05.2019 05:00:00 26,1 23,9 24 13 - - SE 1012,5 16
24.05.2019 04:00:00 26,7 23,9 26 14 - - SE 1012,6 16
24.05.2019 03:00:00 26,7 23,9 18 10 - - SE 1012,8 16
24.05.2019 02:00:00 27,2 23,9 28 15 - - SSE 1013,3 16
24.05.2019 01:00:00 27,8 23,9 26 14 - - SSE 1013,4 16
24.05.2019 00:00:00 27,8 23,9 31 17 - - SSE 1013,7 16
23.05.2019 23:00:00 27,8 24,4 34 18 50 27 SE 1012,9 16
23.05.2019 22:00:00 28,3 24,4 42 23 52 28 SE 1012,0 16
23.05.2019 21:00:00 28,3 24,4 31 17 52 28 SE 1011,3 16
23.05.2019 20:00:00 28,9 24,4 37 20 48 26 SE 1010,7 16
23.05.2019 19:00:00 30,0 24,4 34 18 54 29 SE 1010,3 16
23.05.2019 18:00:00 31,7 25,0 35 19 54 29 SE 1010,1 16
23.05.2019 17:00:00 32,8 25,0 39 21 54 29 SE 1010,0 16
23.05.2019 16:00:00 34,4 24,4 39 21 57 31 SE 1010,0 16
23.05.2019 15:00:00 35,6 23,9 35 19 59 32 SE 1010,4 16
23.05.2019 14:00:00 35,6 23,9 41 22 50 27 SSE 1010,8 16
23.05.2019 13:00:00 35,0 22,8 35 19 52 28 SSE 1011,4 16
23.05.2019 12:00:00 33,9 22,8 35 19 48 26 SE 1011,6 16
23.05.2019 11:00:00 32,8 23,3 35 19 52 28 SSE 1011,8 16
23.05.2019 10:00:00 31,1 24,4 34 18 48 26 SSE 1012,1 16
23.05.2019 09:00:00 28,9 23,9 31 17 - - SSE 1012,2 16
23.05.2019 08:00:00 27,2 24,4 21 11 - - SSE 1011,8 10
23.05.2019 07:00:00 26,7 23,9 22 12 - - SSE 1011,3 16
23.05.2019 06:00:00 26,7 23,9 21 11 - - SSE 1010,8 16
23.05.2019 05:00:00 26,7 23,9 28 15 - - SSE 1010,5 10
23.05.2019 04:00:00 26,7 23,9 26 14 - - SSE 1010,2 16
23.05.2019 03:00:00 27,8 24,4 24 13 - - SE 1010,1 16
23.05.2019 02:00:00 27,8 24,4 31 17 - - SE 1010,2 16
23.05.2019 01:00:00 27,8 24,4 34 18 - - SSE 1010,0 15
23.05.2019 00:00:00 28,3 24,4 29 16 - - SE 1009,9 15
22.05.2019 23:00:00 28,3 24,4 29 16 50 27 SSE 1009,5 13
22.05.2019 22:00:00 28,3 24,4 34 18 - - SSE 1008,3 13
22.05.2019 21:00:00 28,9 24,4 34 18 48 26 SSE 1007,4 15
22.05.2019 20:00:00 29,4 24,4 35 19 54 29 SSE 1006,6 13
22.05.2019 19:00:00 30,6 23,9 46 25 55 30 SSE 1006,0 13
22.05.2019 18:00:00 32,2 24,4 41 22 55 30 SSE 1005,6 13
22.05.2019 17:00:00 32,8 24,4 39 21 52 28 SSE 1005,6 16
22.05.2019 16:00:00 33,3 25,0 37 20 48 26 S 1005,8 16
22.05.2019 15:00:00 33,9 24,4 37 20 54 29 SSE 1005,9 16
22.05.2019 14:00:00 35,0 23,9 41 22 55 30 SSE 1005,9 16
22.05.2019 13:00:00 34,4 23,9 39 21 55 30 SSE 1006,2 16
22.05.2019 12:00:00 33,3 23,9 41 22 57 31 SSE 1006,5 16
22.05.2019 11:00:00 32,2 23,3 37 20 61 33 SSE 1006,5 16
22.05.2019 10:00:00 30,6 23,3 44 24 55 30 SSE 1006,4 16
22.05.2019 09:00:00 28,9 23,9 39 21 48 26 SSE 1006,1 16
22.05.2019 08:00:00 27,2 24,4 26 14 - - SE 1005,7 15
22.05.2019 07:00:00 26,7 24,4 29 16 - - SE 1005,0 11
22.05.2019 06:00:00 26,7 24,4 26 14 - - SE 1004,5 13
22.05.2019 05:00:00 26,7 25,0 22 12 - - SSE 1004,4 11
22.05.2019 04:00:00 26,7 24,4 26 14 - - SSE 1004,6 10
22.05.2019 03:00:00 26,7 24,4 22 12 - - SSE 1004,8 8
22.05.2019 02:00:00 27,2 24,4 21 11 - - SSE 1005,2 8
22.05.2019 01:00:00 27,2 25,0 18 10 - - SSE 1005,5 10
22.05.2019 00:00:00 27,8 25,0 18 10 - - SSE 1005,5 10
21.05.2019 23:00:00 28,3 25,0 21 11 - - SSE 1005,1 10
21.05.2019 22:00:00 28,9 25,0 22 12 - - SSE 1004,3 11
21.05.2019 21:00:00 29,4 25,0 22 12 - - SE 1003,5 16
21.05.2019 20:00:00 30,0 24,4 26 14 - - SSE 1002,5 16
21.05.2019 19:00:00 32,2 24,4 29 16 - - SSE 1001,9 16
21.05.2019 18:00:00 33,3 24,4 22 12 - - SSE 1001,6 16
21.05.2019 17:00:00 33,9 24,4 21 11 - - S 1001,8 13
21.05.2019 16:00:00 33,9 24,4 24 13 - - S 1002,3 13
21.05.2019 15:00:00 33,9 24,4 29 16 - - S 1002,8 13
21.05.2019 14:00:00 33,9 23,9 37 20 50 27 S 1003,2 13
21.05.2019 13:00:00 33,9 24,4 39 21 59 32 S 1003,5 16
21.05.2019 12:00:00 33,3 23,9 44 24 63 34 S 1003,5 16
21.05.2019 11:00:00 32,2 23,3 41 22 61 33 S 1003,3 16
21.05.2019 10:00:00 30,6 23,3 48 26 63 34 S 1003,2 16
21.05.2019 09:00:00 28,9 23,9 54 29 67 36 S 1002,4 15
21.05.2019 08:00:00 27,8 23,9 44 24 59 32 SSE 1001,9 13
21.05.2019 07:00:00 27,8 23,9 42 23 61 33 SSE 1001,7 13
21.05.2019 06:00:00 27,8 23,9 41 22 63 34 S 1001,5 15
21.05.2019 05:00:00 27,8 24,4 37 20 57 31 S 1001,6 15
21.05.2019 04:00:00 27,8 24,4 46 25 61 33 S 1002,4 13
21.05.2019 03:00:00 27,8 24,4 41 22 65 35 S 1002,6 13
21.05.2019 02:00:00 27,8 23,9 37 20 65 35 S 1003,3 15
21.05.2019 01:00:00 27,8 23,9 41 22 59 32 SSE 1003,6 15
21.05.2019 00:00:00 28,3 24,4 37 20 55 30 SSE 1003,9 13
20.05.2019 23:00:00 28,3 24,4 37 20 61 33 SSE 1003,6 13
20.05.2019 22:00:00 27,8 25,0 39 21 55 30 SSE 1003,2 13
20.05.2019 21:00:00 27,8 25,0 35 19 54 29 SSE 1003,2 15
20.05.2019 20:00:00 28,9 24,4 44 24 57 31 SSE 1002,8 16
20.05.2019 19:00:00 30,6 23,9 41 22 59 32 SE 1003,2 16
20.05.2019 18:00:00 32,8 22,8 41 22 67 36 SSE 1003,7 16
20.05.2019 17:00:00 34,4 21,7 46 25 67 36 SSE 1003,9 16
20.05.2019 16:00:00 35,0 21,7 50 27 67 36 SSE 1004,7 16
20.05.2019 15:00:00 34,4 22,8 42 23 61 33 SSE 1006,0 16
20.05.2019 14:00:00 33,9 23,3 39 21 57 31 SSE 1007,0 16
20.05.2019 13:00:00 33,9 23,3 42 23 57 31 SSE 1008,1 16
20.05.2019 12:00:00 33,9 23,3 44 24 54 29 SSE 1008,9 16
20.05.2019 11:00:00 32,2 23,3 41 22 54 29 SSE 1009,1 16
20.05.2019 10:00:00 30,6 23,3 39 21 54 29 SSE 1009,3 16
20.05.2019 09:00:00 28,3 24,4 34 18 - - SSE 1009,6 13
20.05.2019 08:00:00 27,2 25,0 28 15 - - SE 1009,4 8
20.05.2019 07:00:00 26,7 25,0 16 9 - - SE 1009,0 6
20.05.2019 06:00:00 26,7 25,0 21 11 - - SE 1008,9 10
20.05.2019 05:00:00 27,2 25,0 22 12 - - SSE 1008,7 10
20.05.2019 04:00:00 27,2 25,0 18 10 - - SSE 1008,6 10
20.05.2019 03:00:00 27,8 25,6 21 11 - - SE 1009,0 10
20.05.2019 02:00:00 27,8 25,6 22 12 - - SE 1009,3 10
20.05.2019 01:00:00 27,2 25,6 22 12 - - SE 1009,6 10
20.05.2019 00:00:00 27,8 25,6 16 9 - - SE 1009,7 11
19.05.2019 23:00:00 27,8 26,1 16 9 - - SE 1009,3 13
19.05.2019 22:00:00 27,8 26,1 21 11 - - SE 1008,7 13
19.05.2019 21:00:00 27,8 26,1 16 9 - - ESE 1008,0 13
19.05.2019 20:00:00 28,3 25,6 26 14 - - ESE 1007,3 11
19.05.2019 19:00:00 30,6 25,6 29 16 - - ESE 1006,7 16
19.05.2019 18:00:00 32,2 25,6 26 14 - - E 1006,5 16
19.05.2019 17:00:00 33,3 25,6 26 14 - - E 1006,6 16
19.05.2019 16:00:00 34,4 25,0 22 12 - - SSE 1006,9 16
19.05.2019 15:00:00 34,4 24,4 21 11 - - SE 1007,8 16
19.05.2019 14:00:00 33,9 24,4 24 13 - - SE 1008,1 16
19.05.2019 13:00:00 33,3 24,4 26 14 - - SSE 1009,1 16
19.05.2019 12:00:00 31,1 23,9 22 12 - - SSE 1009,6 16
19.05.2019 11:00:00 30,6 23,9 28 15 - - SSE 1009,2 16
19.05.2019 10:00:00 30,6 24,4 24 13 - - SSE 1008,6 16
19.05.2019 09:00:00 28,9 25,0 31 17 - - SE 1008,0 15
19.05.2019 08:00:00 26,7 25,6 18 10 - - ESE 1007,5 6
19.05.2019 07:00:00 25,6 25,0 13 7 - - SE 1007,1 2,8
19.05.2019 06:00:00 25,6 25,0 15 8 - - SE 1006,3 6
19.05.2019 05:00:00 26,1 25,0 15 8 - - SSE 1006,0 6
19.05.2019 04:00:00 26,7 25,0 16 9 - - SE 1005,8 8
19.05.2019 03:00:00 26,7 25,0 15 8 - - SE 1005,8 10
19.05.2019 02:00:00 27,8 24,4 28 15 - - SSE 1006,0 13
19.05.2019 01:00:00 27,2 25,0 18 10 - - SSE 1006,3 10

tt = temperature
td = dewpoint
ff = wind speed
fx = gusts
dd = wind direction
ppp = reduced air pressure
vv = visibility

Next stations